Location: Kirchberg
(47.4114°N, 9.0398°E)
Time: 09:12:36
(UTC+00:00)

SL-16 R/B - Pass Details

Date: 03 March 2021
Orbit: 842 x 846 km, 71.0° (Epoch: 10 April)

Event Time Altitude Azimuth Distance (km) Brightness Sun altitude
Rises 17:46:50 0° 197° (SSW) 3,388 5.6 -6.7°
Reaches altitude 10° 17:49:16 10° 195° (SSW) 2,457 4.9 -7.1°
Maximum altitude 17:54:52 70° 114° (ESE) 899 2.2 -8.0°
Drops below altitude 10° 18:00:31 10° 31° (NNE) 2,476 4.3 -9.0°
Sets 18:02:59 0° 29° (NNE) 3,416 5.1 -9.4°
